Weather History for Luverne, MN

Change the Weather History Date:

Thursday, January 5, 2012

  Actual Average (KFSD) Record (KFSD)
Temperature  
Mean Temperature 42 °F 16 °F  
Max Temperature 57 °F 26 °F 62 °F (2012)
Min Temperature 26 °F 7 °F -29 °F (1924)
Degree Days  
Heating Degree Days 24 49  
Month to date heating degree days 245  
Since 1 July heating degree days 3378  
Cooling Degree Days 0 0  
Month to date cooling degree days 0  
Year to date cooling degree days 0  
Moisture  
Dew Point 27 °F    
Average Humidity 70    
Maximum Humidity 87    
Minimum Humidity 36    
Precipitation  
Precipitation 0.00 in 0.01 in 0.39 in (2015)
Month to date precipitation 0.09  
Year to date precipitation 0.09  
Snow  
Snow 0.00 in 0.20 in 3.90 in (1951)
Month to date snowfall 1.2  
Since 1 July snowfall 18.1  
Snow Depth -    
Sea Level Pressure  
Sea Level Pressure 29.84 in    
Wind  
Wind Speed 3 mph (SW)    
Max Wind Speed 10 mph    
Max Gust Speed -    
Visibility 10 miles    
Events      
T = Trace of Precipitation, MM = Missing Value Source: NWS Daily Summary

Daily Weather History Graph

Daily Weather History Graph

Search for Another Location

Airport:

Trip Planner

Search our weather history database for the weather conditions in past years. The results will help you decide how hot, cold, wet, or windy it might be!

Date:

Astronomy

Jan. 05, 2012 Rise Set
Actual Time 7:58 AM CST 5:02 PM CST
Civil Twilight 7:25 AM CST 5:34 PM CST
Nautical Twilight 6:49 AM CST 6:10 PM CST
Astronomical Twilight 6:15 AM CST 6:45 PM CST
Moon 2:06 PM CST (1/5) 4:44 AM CST (1/5)
Length of Visible Light 10h 08m
Length of Day
9h 03m
Waxing Gibbous, 88% of the Moon is Illuminated
Jan 5
Waxing Gibbous
Jan 9
Full
Jan 16
Last Quarter
Jan 23
New
Jan 30
First Quarter

Hourly Weather History & Observations

Time (CST) Temp. Windchill Dew Point Humidity Pressure Visibility Wind Dir Wind Speed Gust Speed Precip Events Conditions
12:16 AM 32.0 °F 28.7 °F 26.6 °F 80% 29.99 in 10.0 mi West 3.5 mph - N/A   Clear
12:36 AM 32.0 °F - 26.6 °F 80% 29.99 in 10.0 mi Calm Calm - N/A   Clear
12:56 AM 32.0 °F 27.5 °F 26.6 °F 80% 29.99 in 10.0 mi West 4.6 mph - N/A   Clear
1:16 AM 30.2 °F - 24.8 °F 80% 29.99 in 10.0 mi Calm Calm - N/A   Clear
1:36 AM 30.2 °F - 24.8 °F 80% 29.99 in 10.0 mi Calm Calm - N/A   Clear
1:56 AM 28.4 °F - 24.8 °F 86% 29.98 in 10.0 mi Calm Calm - N/A   Clear
2:15 AM 26.6 °F 22.6 °F 23.0 °F 86% 29.98 in 10.0 mi South 3.5 mph - N/A   Clear
2:36 AM 28.4 °F 24.6 °F 23.0 °F 80% 29.97 in 10.0 mi South 3.5 mph - N/A   Clear
2:56 AM 28.4 °F 24.6 °F 23.0 °F 80% 29.97 in 10.0 mi South 3.5 mph - N/A   Clear
3:16 AM 26.6 °F - 23.0 °F 86% 29.96 in 10.0 mi Calm Calm - N/A   Clear
3:36 AM 26.6 °F 21.2 °F 23.0 °F 86% 29.96 in 10.0 mi South 4.6 mph - N/A   Clear
3:56 AM 26.6 °F 22.6 °F 21.2 °F 80% 29.95 in 10.0 mi South 3.5 mph - N/A   Clear
4:15 AM 26.6 °F - 23.0 °F 86% 29.95 in 10.0 mi Calm Calm - N/A   Clear
4:36 AM 26.6 °F 22.6 °F 23.0 °F 86% 29.93 in 10.0 mi SSE 3.5 mph - N/A   Clear
4:56 AM 26.6 °F - 23.0 °F 86% 29.93 in 10.0 mi Calm Calm - N/A   Clear
5:36 AM 26.6 °F - 23.0 °F 86% 29.92 in 10.0 mi Calm Calm - N/A   Clear
5:55 AM 26.6 °F - 21.2 °F 80% 29.92 in 10.0 mi Calm Calm - N/A   Clear
6:16 AM 26.6 °F - 23.0 °F 86% 29.91 in 10.0 mi Calm Calm - N/A   Clear
6:36 AM 26.6 °F - 21.2 °F 80% 29.92 in 10.0 mi Calm Calm - N/A   Clear
6:56 AM 26.6 °F - 23.0 °F 86% 29.91 in 10.0 mi Calm Calm - N/A   Clear
7:15 AM 26.6 °F - 23.0 °F 86% 29.90 in 10.0 mi Calm Calm - N/A   Clear
7:36 AM 26.6 °F 21.2 °F 23.0 °F 86% 29.90 in 10.0 mi SW 4.6 mph - N/A   Clear
7:56 AM 30.2 °F 26.7 °F 23.0 °F 75% 29.89 in 10.0 mi SSW 3.5 mph - N/A   Clear
8:16 AM 28.4 °F 23.3 °F 23.0 °F 80% 29.89 in 10.0 mi SW 4.6 mph - N/A   Clear
8:56 AM 30.2 °F 25.4 °F 26.6 °F 86% 29.88 in 10.0 mi South 4.6 mph - N/A   Clear
9:15 AM 32.0 °F 28.7 °F 26.6 °F 80% 29.88 in 10.0 mi SSW 3.5 mph - N/A   Clear
9:36 AM 32.0 °F - 26.6 °F 80% 29.88 in 10.0 mi Calm Calm - N/A   Clear
9:56 AM 32.0 °F - 28.4 °F 87% 29.87 in 10.0 mi Calm Calm - N/A   Clear
10:16 AM 33.8 °F - 30.2 °F 87% 29.87 in 10.0 mi Calm Calm - N/A   Clear
10:36 AM 37.4 °F - 30.2 °F 75% 29.87 in 10.0 mi Calm Calm - N/A   Clear
11:16 AM 42.8 °F 38.6 °F 30.2 °F 61% 29.85 in 10.0 mi SW 6.9 mph - N/A   Clear
11:56 AM 48.2 °F - 30.2 °F 50% 29.82 in 10.0 mi SW 9.2 mph - N/A   Clear
12:16 PM 50.0 °F - 30.2 °F 47% 29.81 in 10.0 mi WSW 10.4 mph - N/A   Clear
12:35 PM 51.8 °F - 30.2 °F 44% 29.79 in 10.0 mi SW 9.2 mph - N/A   Clear
12:56 PM 51.8 °F - 30.2 °F 44% 29.78 in 10.0 mi SW 10.4 mph - N/A   Clear
1:16 PM 53.6 °F - 30.2 °F 41% 29.77 in 10.0 mi WSW 8.1 mph - N/A   Clear
1:35 PM 55.4 °F - 30.2 °F 38% 29.76 in 10.0 mi WSW 9.2 mph - N/A   Clear
1:56 PM 55.4 °F - 30.2 °F 38% 29.76 in 10.0 mi West 8.1 mph - N/A   Clear
2:16 PM 57.2 °F - 30.2 °F 36% 29.76 in 10.0 mi West 6.9 mph - N/A   Clear
2:35 PM 55.4 °F - 30.2 °F 38% 29.75 in 10.0 mi West 4.6 mph - N/A   Clear
2:56 PM 55.4 °F - 30.2 °F 38% 29.74 in 10.0 mi SW 6.9 mph - N/A   Clear
3:16 PM 55.4 °F - 30.2 °F 38% 29.72 in 10.0 mi SW 6.9 mph - N/A   Clear
3:35 PM 55.4 °F - 32.0 °F 41% 29.73 in 10.0 mi SW 8.1 mph - N/A   Clear
3:56 PM 55.4 °F - 32.0 °F 41% 29.73 in 10.0 mi WSW 6.9 mph - N/A   Clear
4:16 PM 55.4 °F - 32.0 °F 41% 29.72 in 10.0 mi SW 6.9 mph - N/A   Clear
4:36 PM 51.8 °F - 32.0 °F 47% 29.72 in 10.0 mi Calm Calm - N/A   Clear
4:55 PM 51.8 °F - 33.8 °F 50% 29.71 in 10.0 mi Calm Calm - N/A   Clear
5:16 PM 46.4 °F 45.2 °F 32.0 °F 57% 29.71 in 10.0 mi SSW 3.5 mph - N/A   Clear
5:35 PM 44.6 °F - 32.0 °F 61% 29.71 in 10.0 mi Calm Calm - N/A   Clear
5:56 PM 42.8 °F 41.1 °F 32.0 °F 66% 29.71 in 10.0 mi West 3.5 mph - N/A   Clear
6:16 PM 41.0 °F 37.1 °F 32.0 °F 70% 29.71 in 10.0 mi WSW 5.8 mph - N/A   Clear
6:36 PM 37.4 °F 33.8 °F 30.2 °F 75% 29.71 in 10.0 mi South 4.6 mph - N/A   Clear
6:56 PM 37.4 °F - 30.2 °F 75% 29.71 in 10.0 mi Calm Calm - N/A   Clear
7:15 PM 35.6 °F - 30.2 °F 81% 29.71 in 10.0 mi Calm Calm - N/A   Clear
7:36 PM 33.8 °F - 30.2 °F 87% 29.71 in 10.0 mi Calm Calm - N/A   Clear
7:56 PM 35.6 °F - 30.2 °F 81% 29.70 in 10.0 mi Calm Calm - N/A   Clear
8:16 PM 32.0 °F - 28.4 °F 87% 29.70 in 10.0 mi Calm Calm - N/A   Clear
8:36 PM 32.0 °F 28.7 °F 28.4 °F 87% 29.70 in 10.0 mi North 3.5 mph - N/A   Clear
8:55 PM 32.0 °F 28.7 °F 28.4 °F 87% 29.71 in 10.0 mi NE 3.5 mph - N/A   Clear
9:16 PM 32.0 °F - 28.4 °F 87% 29.71 in 10.0 mi Calm Calm - N/A   Clear
9:36 PM 32.0 °F - 28.4 °F 87% 29.71 in 10.0 mi Calm Calm - N/A   Clear
9:55 PM 32.0 °F - 28.4 °F 87% 29.72 in 10.0 mi Calm Calm - N/A   Clear
10:16 PM 32.0 °F 28.7 °F 28.4 °F 87% 29.71 in 10.0 mi North 3.5 mph - N/A   Clear
10:36 PM 30.2 °F - 28.4 °F 93% 29.71 in 10.0 mi Calm Calm - N/A   Clear
10:55 PM 32.0 °F - 28.4 °F 87% 29.71 in 10.0 mi Calm Calm - N/A   Clear
11:36 PM 32.0 °F 28.7 °F 28.4 °F 87% 29.70 in 10.0 mi North 3.5 mph - N/A   Clear
11:55 PM 32.0 °F 28.7 °F 28.4 °F 87% 29.70 in 10.0 mi North 3.5 mph - N/A   Clear